Location: Treviso
(45.6669°N, 12.2430°E)
Time: 00:38:11
(UTC+02:00)

ISS - Pass Details

Date: 25 May 2017
Orbit: 402 x 408 km, 51.6° (Epoch: 30 May)

Event Time Altitude Azimuth Distance (km) Brightness Sun altitude
Rises 04:17:48 0° 295° (WNW) 2,329 -0.2 -10.7°
Reaches altitude 10° 04:19:58 10° 287° (WNW) 1,465 -1.3 -10.4°
Maximum altitude 04:23:03 39° 217° (SW) 621 -3.4 -10.0°
Drops below altitude 10° 04:26:08 10° 147° (SSE) 1,453 -1.1 -9.6°
Sets 04:28:16 0° 139° (SE) 2,307 0.0 -9.4°
